TimeEDT,TemperatureF,Dew PointF,Humidity,Sea Level PressureIn,VisibilityMPH,Wind Direction,Wind SpeedMPH,Gust SpeedMPH,PrecipitationIn,Events,Conditions,WindDirDegrees,DateUTC
12:15 AM,41.4,35.4,79,30.01,10.0,Calm,Calm,-,N/A,,Clear,0,2012-03-29 04:15:00
12:34 AM,38.8,34.0,83,30.02,10.0,Calm,Calm,-,N/A,,Clear,0,2012-03-29 04:34:00
12:54 AM,40.1,35.2,83,30.02,10.0,Calm,Calm,-,N/A,,Clear,0,2012-03-29 04:54:00
1:14 AM,40.1,35.6,84,30.02,10.0,Calm,Calm,-,N/A,,Clear,0,2012-03-29 05:14:00
1:34 AM,40.1,35.8,85,30.02,10.0,Calm,Calm,-,N/A,,Clear,0,2012-03-29 05:34:00
1:55 AM,38.3,34.5,86,30.02,10.0,Calm,Calm,-,N/A,,Clear,0,2012-03-29 05:55:00
2:14 AM,37.8,34.9,89,30.02,10.0,Calm,Calm,-,N/A,,Clear,0,2012-03-29 06:14:00
2:34 AM,36.5,34.3,92,30.02,10.0,Calm,Calm,-,N/A,,Clear,0,2012-03-29 06:34:00
2:55 AM,35.6,32.7,89,30.02,10.0,Calm,Calm,-,N/A,,Clear,0,2012-03-29 06:55:00
3:14 AM,36.5,34.9,94,30.03,10.0,Calm,Calm,-,N/A,,Clear,0,2012-03-29 07:14:00
3:34 AM,36.5,34.7,93,30.02,10.0,NNW,3.5,-,N/A,,Clear,330,2012-03-29 07:34:00
3:54 AM,36.1,34.9,95,30.03,10.0,Calm,Calm,-,N/A,,Clear,0,2012-03-29 07:54:00
4:14 AM,37.6,34.9,90,30.03,10.0,Calm,Calm,-,N/A,,Clear,0,2012-03-29 08:14:00
4:35 AM,37.4,34.2,88,30.04,10.0,NW,4.6,-,N/A,,Clear,320,2012-03-29 08:35:00
4:54 AM,38.7,33.8,83,30.04,10.0,NNW,3.5,-,N/A,,Clear,330,2012-03-29 08:54:00
5:14 AM,38.3,33.3,82,30.04,10.0,NNW,3.5,-,N/A,,Clear,340,2012-03-29 09:14:00
5:35 AM,37.8,32.9,83,30.05,10.0,Calm,Calm,-,N/A,,Clear,0,2012-03-29 09:35:00
5:54 AM,37.9,32.9,82,30.06,10.0,North,3.5,-,N/A,,Clear,350,2012-03-29 09:54:00
6:14 AM,36.5,32.9,87,30.07,10.0,North,3.5,-,N/A,,Clear,10,2012-03-29 10:14:00
6:34 AM,36.1,32.5,87,30.07,10.0,NNE,3.5,-,N/A,,Clear,20,2012-03-29 10:34:00
6:54 AM,36.5,32.7,86,30.08,10.0,Calm,Calm,-,N/A,,Clear,0,2012-03-29 10:54:00
7:14 AM,36.7,32.0,83,30.09,10.0,Calm,Calm,-,N/A,,Clear,0,2012-03-29 11:14:00
7:34 AM,35.1,32.0,89,30.10,10.0,Calm,Calm,-,N/A,,Clear,0,2012-03-29 11:34:00
7:54 AM,34.0,32.0,92,30.11,10.0,Calm,Calm,-,N/A,,Clear,0,2012-03-29 11:54:00
8:14 AM,36.5,33.1,87,30.11,10.0,Calm,Calm,-,N/A,,Clear,0,2012-03-29 12:14:00
8:34 AM,37.2,32.5,83,30.12,10.0,NNW,3.5,-,N/A,,Clear,330,2012-03-29 12:34:00
8:55 AM,38.3,32.5,80,30.12,10.0,Calm,Calm,-,N/A,,Clear,0,2012-03-29 12:55:00
9:14 AM,39.2,32.5,77,30.12,10.0,North,4.6,-,N/A,,Clear,360,2012-03-29 13:14:00
9:34 AM,40.1,33.3,77,30.11,10.0,NNE,5.8,-,N/A,,Clear,30,2012-03-29 13:34:00
9:54 AM,41.0,33.8,76,30.12,10.0,North,5.8,-,N/A,,Clear,10,2012-03-29 13:54:00
10:14 AM,41.7,33.3,72,30.12,10.0,NE,5.8,-,N/A,,Clear,40,2012-03-29 14:14:00
10:35 AM,42.3,32.9,69,30.13,10.0,NNE,3.5,-,N/A,,Clear,30,2012-03-29 14:35:00
10:54 AM,42.8,33.3,69,30.14,10.0,NNE,6.9,-,N/A,,Clear,30,2012-03-29 14:54:00
11:14 AM,43.5,33.6,68,30.14,10.0,NE,4.6,-,N/A,,Scattered Clouds,40,2012-03-29 15:14:00
11:35 AM,43.7,33.3,67,30.14,10.0,NE,3.5,-,N/A,,Scattered Clouds,50,2012-03-29 15:35:00
11:54 AM,44.8,33.4,64,30.14,10.0,Calm,Calm,-,N/A,,Scattered Clouds,0,2012-03-29 15:54:00
12:14 PM,44.4,33.3,65,30.13,10.0,NE,3.5,-,N/A,,Clear,50,2012-03-29 16:14:00
12:34 PM,45.9,33.8,63,30.12,10.0,Calm,Calm,-,N/A,,Clear,0,2012-03-29 16:34:00
12:54 PM,47.1,35.1,63,30.13,10.0,NW,3.5,-,N/A,,Clear,320,2012-03-29 16:54:00
1:14 PM,47.1,34.2,61,30.12,10.0,NNE,5.8,-,N/A,,Clear,30,2012-03-29 17:14:00
1:34 PM,47.8,35.1,61,30.11,10.0,Calm,Calm,-,N/A,,Clear,0,2012-03-29 17:34:00
1:54 PM,48.6,35.2,60,30.11,10.0,NNE,5.8,-,N/A,,Clear,30,2012-03-29 17:54:00
2:14 PM,48.4,35.2,60,30.11,10.0,SE,4.6,-,N/A,,Clear,130,2012-03-29 18:14:00
2:34 PM,49.1,35.1,58,30.10,10.0,Calm,Calm,-,N/A,,Scattered Clouds,0,2012-03-29 18:34:00
2:54 PM,49.5,34.9,57,30.09,10.0,East,3.5,-,N/A,,Scattered Clouds,90,2012-03-29 18:54:00
3:15 PM,50.2,35.6,57,30.08,10.0,ENE,6.9,-,N/A,,Clear,70,2012-03-29 19:15:00
3:34 PM,50.4,35.6,57,30.07,10.0,NNE,4.6,-,N/A,,Clear,20,2012-03-29 19:34:00
3:55 PM,50.4,36.1,58,30.06,10.0,East,8.1,-,N/A,,Clear,80,2012-03-29 19:55:00
4:14 PM,51.1,36.3,57,30.06,10.0,East,4.6,-,N/A,,Clear,80,2012-03-29 20:14:00
4:34 PM,51.4,36.7,57,30.05,10.0,East,5.8,-,N/A,,Clear,90,2012-03-29 20:34:00
4:55 PM,51.1,36.5,57,30.05,10.0,NE,8.1,-,N/A,,Clear,50,2012-03-29 20:55:00
5:14 PM,50.9,36.0,57,30.05,10.0,ENE,4.6,-,N/A,,Clear,70,2012-03-29 21:14:00
5:34 PM,51.3,36.0,56,30.06,10.0,ENE,5.8,-,N/A,,Clear,70,2012-03-29 21:34:00
5:54 PM,51.4,36.3,56,30.05,10.0,ENE,6.9,-,N/A,,Clear,60,2012-03-29 21:54:00
6:14 PM,51.1,35.6,55,30.06,10.0,Calm,Calm,-,N/A,,Clear,0,2012-03-29 22:14:00
6:35 PM,50.7,36.7,59,30.06,10.0,NE,4.6,-,N/A,,Clear,40,2012-03-29 22:35:00
6:54 PM,50.7,35.8,57,30.06,10.0,ENE,5.8,-,N/A,,Clear,70,2012-03-29 22:54:00
7:14 PM,49.8,36.0,59,30.06,10.0,ENE,3.5,-,N/A,,Clear,70,2012-03-29 23:14:00
7:35 PM,48.2,36.0,63,30.06,10.0,ENE,3.5,-,N/A,,Clear,70,2012-03-29 23:35:00
7:54 PM,47.7,36.0,64,30.07,10.0,NE,4.6,-,N/A,,Clear,40,2012-03-29 23:54:00
8:14 PM,46.9,36.1,66,30.07,10.0,NE,3.5,-,N/A,,Clear,50,2012-03-30 00:14:00
8:34 PM,46.4,35.6,66,30.07,10.0,NE,3.5,-,N/A,,Clear,50,2012-03-30 00:34:00
8:54 PM,44.8,36.5,73,30.07,10.0,ENE,4.6,-,N/A,,Clear,60,2012-03-30 00:54:00
9:14 PM,43.7,36.5,76,30.07,10.0,ENE,8.1,-,N/A,,Clear,60,2012-03-30 01:14:00
9:34 PM,44.1,35.4,72,30.07,10.0,ENE,10.4,-,N/A,,Clear,70,2012-03-30 01:34:00
9:54 PM,43.7,35.1,72,30.07,10.0,ENE,8.1,-,N/A,,Clear,70,2012-03-30 01:54:00
10:14 PM,43.7,34.7,71,30.07,10.0,East,10.4,16.1,N/A,,Clear,80,2012-03-30 02:14:00
10:34 PM,43.2,34.7,72,30.07,10.0,East,9.2,-,N/A,,Clear,80,2012-03-30 02:34:00
10:54 PM,42.4,34.7,74,30.06,10.0,East,9.2,-,N/A,,Clear,80,2012-03-30 02:54:00
11:14 PM,41.7,34.9,77,30.05,10.0,ENE,10.4,-,N/A,,Clear,70,2012-03-30 03:14:00
11:34 PM,41.9,34.9,76,30.05,10.0,East,10.4,-,N/A,,Clear,90,2012-03-30 03:34:00
11:54 PM,41.5,34.7,77,30.05,10.0,East,10.4,17.3,N/A,,Clear,90,2012-03-30 03:54:00